Vertical_Velocity
-2 -4 -0 -2 -2 -1 -1 -4 2 1 3 10 6 -11 13 2 0 10 -2 5 9 7
-1 0 -3 -6 4 4 -3 19 9 1 -2 -1 -3 -5 2 3 2 -5 -3 4 6 -7
6 9 20 19 33 19 4 4 14 5 4 6 3 4 3 4 -1 -2 0 1 2 10
4 5 2 -1 -2 -2 5 6 3 -3 5 3 1 2 1 -0 1 0 7 -3 -10 -6
5 10 6 3 3 -0 3 3 -4 1 1 1 6 6 5 5 5 0 -2 1 -1 -6
-6 -7 -7 -5 -4 0 -4 -4 3 3 2 1 1 -2 -2 0 1 0 -1 -2 -0 1
-0 2 2 2 1 2 1 -1 1 -0 1 1 -0 -1 -2 -1 1 0 -0 0 -1 1
1 -0 -1 -1 -4 -2 -1 -1 -1 -2 -3 -2 3 2 1 -3 1 2 1 3 1 1
2 -2 -1 -2 -2 -2 -1 -0 2 3 2 -3 1 -3 -3 1 -2 -1 -2 -3 -0 -0
-0 0 3 2 0 -1 -1 -1 -2 2 5 2 1 1 -0 -3 -2 -1 0 -2 -3 -6
-4 -0 -0 -1 1 2 1 -1 -3 -4 -2 -2 -1 1 1 -3 -3 -2 -3 -1 2 3
1 -2 -1 1 -2 -1 0 3 3 2 -1 -2 -2 -3 -1 -0 1 -0 -5 -2 -2 -2
-2 2 -0 -2 -2 -3 -3 -7 -5 -3 2 -1 5 1 1 -3 -2 -0 -7 -3 -1 -1
-1 -2 -3 -2 -2 -1 1 -4 0 4 -0 -2 -2 -0 -1 -1 -2 -2 -7 -5 -7 -5
Height
1456 1458 1459 1462 1466 1468 1469 1470 1471 1473 1475 1475 1478 1483 1484 1490 1494 1496 1498 1501 1504 1504
1450 1450 1453 1457 1461 1463 1464 1465 1467 1470 1473 1475 1477 1480 1483 1485 1489 1491 1494 1495 1497 1498
1446 1444 1447 1451 1454 1457 1462 1463 1464 1467 1470 1472 1476 1478 1480 1483 1485 1487 1489 1490 1491 1491
1447 1448 1451 1452 1456 1458 1461 1463 1465 1466 1467 1469 1471 1473 1476 1478 1480 1481 1481 1482 1484 1484
1447 1449 1451 1455 1458 1460 1461 1462 1464 1465 1466 1467 1468 1470 1473 1473 1474 1476 1478 1478 1477 1477
1451 1454 1455 1457 1459 1462 1463 1465 1467 1467 1467 1467 1467 1469 1471 1471 1471 1472 1472 1472 1472 1471
1459 1460 1461 1462 1463 1464 1465 1466 1466 1466 1466 1466 1467 1467 1468 1468 1468 1467 1467 1466 1465 1464
1461 1462 1463 1463 1463 1464 1464 1464 1464 1465 1465 1465 1464 1463 1462 1464 1463 1461 1461 1460 1458 1457
1463 1463 1463 1463 1463 1464 1463 1463 1463 1462 1462 1461 1461 1459 1460 1458 1457 1456 1454 1453 1452 1451
1464 1464 1463 1463 1463 1463 1463 1462 1461 1460 1458 1457 1457 1457 1455 1453 1453 1451 1449 1447 1446 1444
1464 1464 1463 1462 1462 1461 1461 1460 1460 1458 1457 1455 1454 1453 1451 1449 1449 1446 1445 1443 1441 1437
1464 1464 1463 1463 1462 1461 1459 1459 1457 1456 1454 1453 1451 1449 1447 1444 1442 1439 1436 1435 1432 1431
1463 1463 1461 1460 1459 1458 1456 1454 1452 1451 1449 1447 1445 1444 1442 1439 1437 1434 1432 1431 1428 1425
1461 1460 1458 1457 1456 1454 1452 1452 1451 1448 1446 1445 1443 1441 1439 1436 1433 1430 1427 1424 1421 1419